Tracking 31027 objects as of 19-Jul-2025
HD Live streaming from Space Station
objects crossing your sky now

COSMOS 970 DEB

Track COSMOS 970 DEB now!
10-day predictions


NORAD ID: 10883
Int'l Code: 1977-121AE
Perigee: 890.4 km
Apogee: 1,082.0 km
Inclination: 65.8 °
Period: 104.7 minutes
Semi major axis: 7357 km
RCS: 0.0133 m2 (small)
Launch date: December 21, 1977
Source: Commonwealth of Independent States (former USSR) (CIS)
Launch site: TYURATAM MISSILE AND SPACE COMPLEX (TTMTR)

Note: This is SATELLITE DEBRIS
Your satellite tracking list
NUSAT-20 (GRACE)
Track 1 satellite(s)




NASA's NSSDC Master Catalog

Two Line Element Set (TLE):
1 10883U 77121AE  25199.85027306  .00000390  00000-0  45729-3 0  9997
2 10883  65.8433 332.9993 0130210 261.5729 264.6629 13.75741664376834
Source of the keplerian elements: AFSPC